COSMOS 1634

导读

COSMOS 1634是苏联(CIS)于1985年3月14日发射的一颗军用侦察卫星,隶属于著名的“宇宙”卫星系列。该系列卫星采用统一编号命名,借此隐蔽卫星真实任务属性。COSMOS系列是冷战时期苏联航天活动的重要组成,涵盖军事侦察、电子情报收集等多种用途,在美苏太空对抗中发挥了关键作用,这类卫星多数已完成服役任务,部分残骸会再入大气层销毁。

基本信息
目录编号:
15597
目录名称:
COSMOS 1634
国际标识:
1985-022A
轨道中心:
EARTH
卫星名称:
COSMOS 1634
卫星全名:
--
卫星状态:
在轨 (已飞行15110 天)
发射日期:
1985-03-14 UTC
国别 :
俄罗斯(独联体) (CIS)
星等 :
--
轨道信息
数据来源 国际轨道数据 AOE轨道数据
星历时间 2026-07-27T17:26:55+0800
12小时前
查看轨道信息
2026-07-26T00:00:00+0800
2天前
查看轨道信息
半长轴 7358.631km 7358.636km
偏心率 0.0034075 0.0033759
轨道倾角 82.940° 82.940°
近地点辐角 285.182° 289.825°
升交点赤经 185.889° 187.170°
平近点角 228.039° 317.381°
近地点 955.419km 955.656km
远地点 1005.569km 1005.342km
周期 104.702分钟 104.702分钟
每日圈数 13.75331 13.753297
详细信息
使用方式:
暂无
2D轨道图
3D轨道图
轨道高度分析图
轨道倾角分析图
轨道综合分析图
查看轨道综合分析图